Date String (YYYY-MM-DD hh:mm:ss) UTC,Instrument flags,absolute air pressure of the measurement (hPa),sample flow rate (lpm),inlet stack bypass flow (lpm),air temperature of the measurement (°C),ambient temperature measured by the external sensor (°C),aerosol sample conditioner tube jacket temperature (°C),OPC LED temperature (°C),internal box temperature (°C),relative humidity of the measurement (%),span deviation,mass concentration of particles derived from Lorenz-Mie calculation of OPC scattering (μg/m³),mass concentration of particles derived from Lorenz-Mie calculation of OPC scattering (μg/m³),mass concentration of particles derived from Lorenz-Mie calculation of OPC scattering (μg/m³)
DateTimeUTC,F1_M11,P_M11,Q1_M11,Q2_M11,T1_M11,T2_M11,T3_M11,T4_M11,T5_M11,U1_M11,ZSPAN_M11,X0_M11,X2_M11,X1_M11
2023-07-31 17:00:00,SystemResetWarning,0836.6,4.97,000.00,033.7,027.9,000.0,041.1,032.4,34.1,-002.1,0023.69,0009.43,0006.95
2023-07-31 17:01:00,SystemResetWarning,0836.6,5.02,000.00,033.8,027.8,000.0,041.0,032.5,34.3,-002.0,0022.15,0009.48,0006.99
2023-07-31 17:02:00,SystemResetWarning,0836.5,4.98,000.00,033.9,026.6,000.0,040.9,032.3,34.5,-001.7,0022.04,0009.53,0007.02
2023-07-31 17:03:00,SystemResetWarning,0836.5,5.00,000.00,033.8,025.7,000.0,040.8,032.1,34.3,-002.0,0022.16,0009.60,0007.07
2023-07-31 17:04:00,SystemResetWarning,0836.5,5.01,000.00,033.7,025.7,000.0,040.8,031.9,34.1,-002.2,0022.72,0009.65,0007.10
2023-07-31 17:05:00,SystemResetWarning,0836.5,5.00,000.00,033.4,026.0,000.0,040.9,031.8,34.5,-002.2,0022.49,0009.71,0007.10
2023-07-31 17:06:00,SystemResetWarning,0836.4,5.00,000.00,033.3,026.5,000.0,040.9,031.9,35.6,-001.5,0022.42,0009.74,0007.10
2023-07-31 17:07:00,SystemResetWarning,0836.4,5.01,000.00,033.4,026.9,000.0,041.0,032.0,35.1,-001.3,0022.02,0009.76,0007.11
2023-07-31 17:08:00,SystemResetWarning,0836.5,5.01,000.00,033.5,027.3,000.0,041.0,032.2,34.9,-001.2,0021.61,0009.84,0007.14
2023-07-31 17:09:00,SystemResetWarning,0836.5,4.99,000.00,033.7,027.6,000.0,041.0,032.3,34.3,-001.0,0021.63,0009.91,0007.18
2023-07-31 17:10:00,SystemResetWarning,0836.5,4.98,000.00,033.7,027.8,000.0,041.0,032.4,34.7,-000.8,0021.64,0009.90,0007.20
2023-07-31 17:11:00,SystemResetWarning,0836.5,5.03,000.00,033.8,027.2,000.0,040.9,032.4,34.6,-000.8,0021.90,0009.99,0007.22
2023-07-31 17:12:00,SystemResetWarning,0836.4,4.98,000.00,033.9,026.0,000.0,040.8,032.1,34.3,-000.1,0023.47,0010.04,0007.24
2023-07-31 17:13:00,SystemResetWarning,0836.4,4.99,000.00,033.8,025.6,000.0,040.8,032.0,34.6,-000.1,0024.10,0010.11,0007.28
2023-07-31 17:14:00,SystemResetWarning,0836.4,5.01,000.00,033.7,025.8,000.0,040.9,031.8,35.4,0000.1,0024.41,0010.10,0007.32
2023-07-31 17:15:00,SystemResetWarning,0836.3,5.01,000.00,033.6,026.2,000.0,040.9,031.9,35.5,-000.1,0024.22,0010.14,0007.35
2023-07-31 17:16:00,SystemResetWarning,0836.4,4.97,000.00,033.7,026.6,000.0,041.0,032.1,34.9,-000.1,0024.00,0010.19,0007.39
2023-07-31 17:17:00,SystemResetWarning,0836.4,5.02,000.00,033.9,027.0,000.0,041.0,032.2,34.1,-000.8,0023.98,0010.18,0007.43
2023-07-31 17:18:00,SystemResetWarning,0836.4,5.00,000.00,033.9,027.4,000.0,041.0,032.3,33.6,-000.5,0025.07,0010.24,0007.44
2023-07-31 17:19:00,SystemResetWarning,0836.4,4.99,000.00,033.9,027.7,000.0,041.1,032.3,33.5,-000.5,0025.49,0010.23,0007.45
2023-07-31 17:20:00,SystemResetWarning,0836.4,5.00,000.00,033.9,027.9,000.0,041.2,032.3,33.6,-000.9,0025.53,0010.30,0007.47
2023-07-31 17:21:00,SystemResetWarning,0836.4,4.99,000.00,033.9,027.5,000.0,041.1,032.3,33.8,-001.4,0025.22,0010.34,0007.49
2023-07-31 17:22:00,SystemResetWarning,0836.4,5.00,000.00,033.9,026.2,000.0,041.0,032.1,33.9,-001.1,0025.28,0010.37,0007.51
2023-07-31 17:23:00,SystemResetWarning,0836.4,5.00,000.00,033.8,025.7,000.0,040.9,032.0,34.3,-001.6,0023.97,0010.35,0007.51
2023-07-31 17:24:00,SystemResetWarning,0836.4,5.01,000.00,033.6,025.8,000.0,040.9,031.8,34.3,-002.3,0023.09,0010.22,0007.50
2023-07-31 17:25:00,SystemResetWarning,0836.3,5.00,000.00,033.4,026.2,000.0,041.0,031.8,35.0,-002.1,0022.15,0010.18,0007.49
2023-07-31 17:26:00,SystemResetWarning,0836.3,5.00,000.00,033.4,026.6,000.0,041.0,031.9,35.2,-001.7,0022.21,0010.16,0007.47
2023-07-31 17:27:00,SystemResetWarning,0836.3,4.97,000.00,033.5,027.0,000.0,041.0,032.1,35.1,-001.8,0022.61,0010.12,0007.47
2023-07-31 17:28:00,SystemResetWarning,0836.2,5.02,000.00,033.6,027.4,000.0,041.0,032.2,35.8,-001.0,0023.14,0010.19,0007.48
2023-07-31 17:29:00,SystemResetWarning,0836.3,5.01,000.00,033.8,027.7,000.0,041.1,032.4,35.1,-001.2,0021.85,0010.21,0007.49
2023-07-31 17:30:00,SystemResetWarning,0836.3,4.97,000.00,034.0,027.9,000.0,041.1,032.5,34.8,-001.3,0021.31,0010.24,0007.52
2023-07-31 17:31:00,SystemResetWarning,0836.4,5.00,000.00,034.2,027.0,000.0,041.0,032.5,34.6,-000.9,0021.63,0010.20,0007.52
2023-07-31 17:32:00,SystemResetWarning,0836.3,5.00,000.00,034.3,025.9,000.0,040.9,032.3,34.5,-000.6,0022.83,0010.22,0007.53
2023-07-31 17:33:00,SystemResetWarning,0836.3,5.01,000.00,034.2,025.7,000.0,040.9,032.1,33.8,-001.1,0022.93,0010.12,0007.51
2023-07-31 17:34:00,SystemResetWarning,0836.2,5.01,000.00,034.0,026.0,000.0,041.0,031.9,33.6,-001.5,0023.70,0010.14,0007.51
2023-07-31 17:35:00,SystemResetWarning,0836.3,4.99,000.00,033.9,026.4,000.0,041.1,031.9,33.7,-000.7,0023.79,0010.25,0007.51
2023-07-31 17:36:00,SystemResetWarning,0836.2,4.99,000.00,033.7,026.8,000.0,041.1,032.0,34.3,-000.8,0023.68,0010.27,0007.50
2023-07-31 17:37:00,SystemResetWarning,0836.3,5.00,000.00,033.7,027.2,000.0,041.2,032.1,34.6,-001.2,0023.11,0010.24,0007.49
2023-07-31 17:38:00,SystemResetWarning,0836.3,5.01,000.00,033.6,027.5,000.0,041.2,032.1,34.7,-001.0,0023.41,0010.25,0007.49
2023-07-31 17:39:00,SystemResetWarning,0836.2,4.99,000.00,033.5,027.8,000.0,041.2,032.2,34.9,-001.4,0022.46,0010.26,0007.50
2023-07-31 17:40:00,SystemResetWarning,0836.2,4.98,000.00,033.6,027.0,000.0,041.0,032.3,34.9,-001.7,0022.34,0010.19,0007.51
2023-07-31 17:41:00,SystemResetWarning,0836.2,5.02,000.00,033.6,025.9,000.0,040.9,032.1,34.9,-002.3,0023.04,0010.22,0007.50
2023-07-31 17:42:00,SystemResetWarning,0836.2,4.98,000.00,033.6,025.7,000.0,040.8,032.0,34.7,-002.5,0022.76,0010.23,0007.50
2023-07-31 17:43:00,SystemResetWarning,0836.2,5.00,000.00,033.4,025.9,000.0,040.9,031.8,35.5,-001.7,0022.01,0010.23,0007.50
2023-07-31 17:44:00,SystemResetWarning,0836.1,5.02,000.00,033.4,026.3,000.0,040.9,031.9,35.5,-001.5,0021.99,0010.21,0007.51
2023-07-31 17:45:00,SystemResetWarning,0836.1,4.99,000.00,033.6,026.7,000.0,040.9,032.1,34.9,-001.3,0021.85,0010.19,0007.51
2023-07-31 17:46:00,SystemResetWarning,0836.2,4.99,000.00,033.7,027.1,000.0,040.9,032.2,34.4,-001.1,0021.36,0010.15,0007.51
2023-07-31 17:47:00,SystemResetWarning,0836.2,4.99,000.00,033.8,027.5,000.0,041.0,032.3,33.3,-000.6,0021.91,0010.20,0007.50
2023-07-31 17:48:00,SystemResetWarning,0836.1,5.00,000.00,033.8,027.8,000.0,041.0,032.3,33.3,-001.4,0023.35,0010.26,0007.52
2023-07-31 17:49:00,SystemResetWarning,0836.1,5.00,000.00,033.8,027.7,000.0,041.0,032.4,33.8,-001.8,0023.32,0010.27,0007.51
2023-07-31 17:50:00,SystemResetWarning,0836.1,4.99,000.00,033.9,026.5,000.0,040.9,032.2,34.2,-001.4,0024.28,0010.24,0007.46
2023-07-31 17:51:00,SystemResetWarning,0836.1,5.01,000.00,033.8,025.7,000.0,040.8,032.1,35.0,-001.1,0024.81,0010.27,0007.45
2023-07-31 17:52:00,SystemResetWarning,0836.0,5.00,000.00,033.8,025.7,000.0,040.8,032.0,35.4,-000.3,0024.26,0010.24,0007.44
2023-07-31 17:53:00,SystemResetWarning,0836.0,5.01,000.00,033.8,026.1,000.0,040.9,032.0,35.3,-000.2,0024.01,0010.29,0007.43
2023-07-31 17:54:00,SystemResetWarning,0836.1,4.99,000.00,033.9,026.5,000.0,041.0,032.1,33.8,-000.4,0024.31,0010.25,0007.41
2023-07-31 17:55:00,SystemResetWarning,0836.1,5.00,000.00,033.9,026.9,000.0,041.0,032.2,32.7,-000.3,0023.83,0010.27,0007.41
2023-07-31 17:56:00,SystemResetWarning,0836.1,5.02,000.00,034.0,027.3,000.0,041.1,032.2,32.2,-000.3,0023.45,0010.27,0007.41
2023-07-31 17:57:00,SystemResetWarning,0836.1,4.99,000.00,033.9,027.6,000.0,041.1,032.3,33.1,-000.5,0023.50,0010.26,0007.42
2023-07-31 17:58:00,SystemResetWarning,0836.1,4.99,000.00,033.9,027.6,000.0,041.1,032.3,34.1,-000.9,0024.30,0010.18,0007.42
2023-07-31 17:59:00,SystemResetWarning,0836.1,4.99,000.00,034.0,026.5,000.0,041.0,032.2,33.7,-000.4,0024.27,0010.07,0007.41
